Year,Month,Day,Hour,Minute,Value (Times are PST for temperature in C)
2009,06,27,00,00,8.50
2009,06,27,00,01,8.50
2009,06,27,00,02,8.50
2009,06,27,00,03,8.50
2009,06,27,00,04,8.50
2009,06,27,00,05,8.50
2009,06,27,00,06,8.50
2009,06,27,00,07,8.50
2009,06,27,00,08,8.50
2009,06,27,00,09,8.50
2009,06,27,00,10,8.50
2009,06,27,00,11,8.50
2009,06,27,00,12,8.40
2009,06,27,00,13,8.40
2009,06,27,00,14,8.40
2009,06,27,00,15,8.40
2009,06,27,00,16,8.40
2009,06,27,00,17,8.40
2009,06,27,00,18,8.40
2009,06,27,00,19,8.40
2009,06,27,00,20,8.40
2009,06,27,00,21,8.50
2009,06,27,00,22,8.50
2009,06,27,00,23,8.50
2009,06,27,00,24,8.50
2009,06,27,00,25,8.40
2009,06,27,00,26,8.40
2009,06,27,00,27,8.30
2009,06,27,00,28,8.30
2009,06,27,00,29,8.20
2009,06,27,00,30,8.20
2009,06,27,00,31,8.20
2009,06,27,00,32,8.20
2009,06,27,00,33,8.10
2009,06,27,00,34,8.10
2009,06,27,00,35,8.00
2009,06,27,00,36,8.00
2009,06,27,00,37,8.00
2009,06,27,00,38,7.90
2009,06,27,00,39,7.90
2009,06,27,00,40,7.90
2009,06,27,00,41,7.80
2009,06,27,00,42,7.80
2009,06,27,00,43,7.80
2009,06,27,00,44,7.80
2009,06,27,00,45,7.80
2009,06,27,00,46,7.80
2009,06,27,00,47,7.80
2009,06,27,00,48,7.80
2009,06,27,00,49,7.80
2009,06,27,00,50,7.70
2009,06,27,00,51,7.70
2009,06,27,00,52,7.70
2009,06,27,00,53,7.70
2009,06,27,00,54,7.70
2009,06,27,00,55,7.70
2009,06,27,00,56,7.70
2009,06,27,00,57,7.70
2009,06,27,00,58,7.60
2009,06,27,00,59,7.60
2009,06,27,01,00,7.60
2009,06,27,01,01,7.60
2009,06,27,01,02,7.60
2009,06,27,01,03,7.60
2009,06,27,01,04,7.50
2009,06,27,01,05,7.50
2009,06,27,01,06,7.50
2009,06,27,01,07,7.50
2009,06,27,01,08,7.50
2009,06,27,01,09,7.50
2009,06,27,01,10,7.50
2009,06,27,01,11,7.50
2009,06,27,01,12,7.50
2009,06,27,01,13,7.50
2009,06,27,01,14,7.50
2009,06,27,01,15,7.50
2009,06,27,01,16,7.50
2009,06,27,01,17,7.50
2009,06,27,01,18,7.50
2009,06,27,01,19,7.50
2009,06,27,01,20,7.50
2009,06,27,01,21,7.50
2009,06,27,01,22,7.50
2009,06,27,01,23,7.50
2009,06,27,01,24,7.50
2009,06,27,01,25,7.50
2009,06,27,01,26,7.50
2009,06,27,01,27,7.50
2009,06,27,01,28,7.50
2009,06,27,01,29,7.50
2009,06,27,01,30,7.50
2009,06,27,01,31,7.50
2009,06,27,01,32,7.50
2009,06,27,01,33,7.50
2009,06,27,01,34,7.40
2009,06,27,01,35,7.40
2009,06,27,01,36,7.40
2009,06,27,01,37,7.40
2009,06,27,01,38,7.40
2009,06,27,01,39,7.40
2009,06,27,01,40,7.40
2009,06,27,01,41,7.40
2009,06,27,01,42,7.30
2009,06,27,01,43,7.30
2009,06,27,01,44,7.30
2009,06,27,01,45,7.30
2009,06,27,01,46,7.30
2009,06,27,01,47,7.30
2009,06,27,01,48,7.30
2009,06,27,01,49,7.30
2009,06,27,01,50,7.30
2009,06,27,01,51,7.30
2009,06,27,01,52,7.30
2009,06,27,01,53,7.30
2009,06,27,01,54,7.30
2009,06,27,01,55,7.30
2009,06,27,01,56,7.30
2009,06,27,01,57,7.30
2009,06,27,01,58,7.30
2009,06,27,01,59,7.20
2009,06,27,02,00,7.20
2009,06,27,02,01,7.20
2009,06,27,02,02,7.20
2009,06,27,02,03,7.20
2009,06,27,02,04,7.20
2009,06,27,02,05,7.20
2009,06,27,02,06,7.20
2009,06,27,02,07,7.10
2009,06,27,02,08,7.10
2009,06,27,02,09,7.10
2009,06,27,02,10,7.10
2009,06,27,02,11,7.10
2009,06,27,02,12,7.00
2009,06,27,02,13,7.00
2009,06,27,02,14,7.00
2009,06,27,02,15,7.00
2009,06,27,02,16,7.00
2009,06,27,02,17,7.00
2009,06,27,02,18,7.00
2009,06,27,02,19,7.00
2009,06,27,02,20,6.90
2009,06,27,02,21,6.90
2009,06,27,02,22,6.90
2009,06,27,02,23,6.90
2009,06,27,02,24,6.90
2009,06,27,02,25,6.90
2009,06,27,02,26,6.90
2009,06,27,02,27,6.90
2009,06,27,02,28,6.80
2009,06,27,02,29,6.80
2009,06,27,02,30,6.80
2009,06,27,02,31,6.80
2009,06,27,02,32,6.80
2009,06,27,02,33,6.80
2009,06,27,02,34,6.80
2009,06,27,02,35,6.80
2009,06,27,02,36,6.80
2009,06,27,02,37,6.80
2009,06,27,02,38,6.80
2009,06,27,02,39,6.80
2009,06,27,02,40,6.80
2009,06,27,02,41,6.80
2009,06,27,02,42,6.80
2009,06,27,02,43,6.70
2009,06,27,02,44,6.70
2009,06,27,02,45,6.70
2009,06,27,02,46,6.70
2009,06,27,02,47,6.70
2009,06,27,02,48,6.70
2009,06,27,02,49,6.70
2009,06,27,02,50,6.60
2009,06,27,02,51,6.60
2009,06,27,02,52,6.60
2009,06,27,02,53,6.60
2009,06,27,02,54,6.60
2009,06,27,02,55,6.60
2009,06,27,02,56,6.60
2009,06,27,02,57,6.60
2009,06,27,02,58,6.60
2009,06,27,02,59,6.60
2009,06,27,03,00,6.60
2009,06,27,03,01,6.60
2009,06,27,03,02,6.60
2009,06,27,03,03,6.60
2009,06,27,03,04,6.60
2009,06,27,03,05,6.60
2009,06,27,03,06,6.60
2009,06,27,03,07,6.60
2009,06,27,03,08,6.60
2009,06,27,03,09,6.60
2009,06,27,03,10,6.60
2009,06,27,03,11,6.60
2009,06,27,03,12,6.50
2009,06,27,03,13,6.40
2009,06,27,03,14,6.40
2009,06,27,03,15,6.40
2009,06,27,03,16,6.40
2009,06,27,03,17,6.40
2009,06,27,03,18,6.40
2009,06,27,03,19,6.40
2009,06,27,03,20,6.40
2009,06,27,03,21,6.40
2009,06,27,03,22,6.40
2009,06,27,03,23,6.40
2009,06,27,03,24,6.40
2009,06,27,03,25,6.40
2009,06,27,03,26,6.40
2009,06,27,03,27,6.40
2009,06,27,03,28,6.40
2009,06,27,03,29,6.40
2009,06,27,03,30,6.40
2009,06,27,03,31,6.40
2009,06,27,03,32,6.40
2009,06,27,03,33,6.30
2009,06,27,03,34,6.30
2009,06,27,03,35,6.30
2009,06,27,03,36,6.30
2009,06,27,03,37,6.30
2009,06,27,03,38,6.30
2009,06,27,03,39,6.30
2009,06,27,03,40,6.30
2009,06,27,03,41,6.20
2009,06,27,03,42,6.20
2009,06,27,03,43,6.20
2009,06,27,03,44,6.20
2009,06,27,03,45,6.20
2009,06,27,03,46,6.20
2009,06,27,03,47,6.20
2009,06,27,03,48,6.20
2009,06,27,03,49,6.20
2009,06,27,03,50,6.20
2009,06,27,03,51,6.20
2009,06,27,03,52,6.20
2009,06,27,03,53,6.20
2009,06,27,03,54,6.20
2009,06,27,03,55,6.20
2009,06,27,03,56,6.20
2009,06,27,03,57,6.20
2009,06,27,03,58,6.20
2009,06,27,03,59,6.20
2009,06,27,04,00,6.20
2009,06,27,04,01,6.20
2009,06,27,04,02,6.20
2009,06,27,04,03,6.20
2009,06,27,04,04,6.20
2009,06,27,04,05,6.20
2009,06,27,04,06,6.20
2009,06,27,04,07,6.20
2009,06,27,04,08,6.20
2009,06,27,04,09,6.20
2009,06,27,04,10,6.20
2009,06,27,04,11,6.20
2009,06,27,04,12,6.20
2009,06,27,04,13,6.10
2009,06,27,04,14,6.10
2009,06,27,04,15,6.10
2009,06,27,04,16,6.10
2009,06,27,04,17,6.10
2009,06,27,04,18,6.10
2009,06,27,04,19,6.00
2009,06,27,04,20,6.00
2009,06,27,04,21,6.00
2009,06,27,04,22,6.00
2009,06,27,04,23,6.00
2009,06,27,04,24,6.00
2009,06,27,04,25,6.00
2009,06,27,04,26,6.00
2009,06,27,04,27,6.00
2009,06,27,04,28,6.00
2009,06,27,04,29,5.90
2009,06,27,04,30,5.90
2009,06,27,04,31,5.90
2009,06,27,04,32,5.90
2009,06,27,04,33,5.90
2009,06,27,04,34,5.90
2009,06,27,04,35,5.90
2009,06,27,04,36,5.90
2009,06,27,04,37,5.90
2009,06,27,04,38,5.90
2009,06,27,04,39,5.90
2009,06,27,04,40,5.90
2009,06,27,04,41,5.90
2009,06,27,04,42,5.90
2009,06,27,04,43,5.80
2009,06,27,04,44,5.80
2009,06,27,04,45,5.80
2009,06,27,04,46,5.80
2009,06,27,04,47,5.70
2009,06,27,04,48,5.70
2009,06,27,04,49,5.70
2009,06,27,04,50,5.70
2009,06,27,04,51,5.70
2009,06,27,04,52,5.70
2009,06,27,04,53,5.70
2009,06,27,04,54,5.70
2009,06,27,04,55,5.70
2009,06,27,04,56,5.70
2009,06,27,04,57,5.70
2009,06,27,04,58,5.70
2009,06,27,04,59,5.60
2009,06,27,05,00,5.60
2009,06,27,05,01,5.60
2009,06,27,05,02,5.60
2009,06,27,05,03,5.60
2009,06,27,05,04,5.60
2009,06,27,05,05,5.50
2009,06,27,05,06,5.50
2009,06,27,05,07,5.50
2009,06,27,05,08,5.50
2009,06,27,05,09,5.50
2009,06,27,05,10,5.50
2009,06,27,05,11,5.50
2009,06,27,05,12,5.50
2009,06,27,05,13,5.40
2009,06,27,05,14,5.40
2009,06,27,05,15,5.40
2009,06,27,05,16,5.40
2009,06,27,05,17,5.40
2009,06,27,05,18,5.40
2009,06,27,05,19,5.40
2009,06,27,05,20,5.40
2009,06,27,05,21,5.40
2009,06,27,05,22,5.40
2009,06,27,05,23,5.40
2009,06,27,05,24,5.40
2009,06,27,05,25,5.40
2009,06,27,05,26,5.40
2009,06,27,05,27,5.40
2009,06,27,05,28,5.40
2009,06,27,05,29,5.40
2009,06,27,05,30,5.40
2009,06,27,05,31,5.50
2009,06,27,05,32,5.50
2009,06,27,05,33,5.50
2009,06,27,05,34,5.50
2009,06,27,05,35,5.50
2009,06,27,05,36,5.50
2009,06,27,05,37,5.50
2009,06,27,05,38,5.50
2009,06,27,05,39,5.50
2009,06,27,05,40,5.50
2009,06,27,05,41,5.50
2009,06,27,05,42,5.50
2009,06,27,05,43,5.50
2009,06,27,05,44,5.50
2009,06,27,05,45,5.50
2009,06,27,05,46,5.50
2009,06,27,05,47,5.50
2009,06,27,05,48,5.50
2009,06,27,05,49,5.50
2009,06,27,05,50,5.50
2009,06,27,05,51,5.50
2009,06,27,05,52,5.50
2009,06,27,05,53,5.50
2009,06,27,05,54,5.50
2009,06,27,05,55,5.50
2009,06,27,05,56,5.50
2009,06,27,05,57,5.50
2009,06,27,05,58,5.50
2009,06,27,05,59,5.60
2009,06,27,06,00,5.60
2009,06,27,06,01,5.60
2009,06,27,06,02,5.60
2009,06,27,06,03,5.60
2009,06,27,06,04,5.70
2009,06,27,06,05,5.70
2009,06,27,06,06,5.70
2009,06,27,06,07,5.70
2009,06,27,06,08,5.70
2009,06,27,06,09,5.70
2009,06,27,06,10,5.70
2009,06,27,06,11,5.70
2009,06,27,06,12,5.70
2009,06,27,06,13,5.70
2009,06,27,06,14,5.80
2009,06,27,06,15,5.80
2009,06,27,06,16,5.80
2009,06,27,06,17,5.80
2009,06,27,06,18,5.80
2009,06,27,06,19,5.80
2009,06,27,06,20,5.80
2009,06,27,06,21,5.90
2009,06,27,06,22,5.90
2009,06,27,06,23,5.90
2009,06,27,06,24,5.90
2009,06,27,06,25,5.90
2009,06,27,06,26,5.90
2009,06,27,06,27,5.90
2009,06,27,06,28,5.90
2009,06,27,06,29,5.90
2009,06,27,06,30,6.00
2009,06,27,06,31,6.00
2009,06,27,06,32,6.00
2009,06,27,06,33,6.00
2009,06,27,06,34,6.00
2009,06,27,06,35,6.00
2009,06,27,06,36,6.00
2009,06,27,06,37,6.00
2009,06,27,06,38,6.10
2009,06,27,06,39,6.10
2009,06,27,06,40,6.10
2009,06,27,06,41,6.20
2009,06,27,06,42,6.20
2009,06,27,06,43,6.20
2009,06,27,06,44,6.20
2009,06,27,06,45,6.30
2009,06,27,06,46,6.30
2009,06,27,06,47,6.40
2009,06,27,06,48,6.40
2009,06,27,06,49,6.40
2009,06,27,06,50,6.40
2009,06,27,06,51,6.40
2009,06,27,06,52,6.40
2009,06,27,06,53,6.50
2009,06,27,06,54,6.60
2009,06,27,06,55,6.60
2009,06,27,06,56,6.60
2009,06,27,06,57,6.60
2009,06,27,06,58,6.70
2009,06,27,06,59,6.70
2009,06,27,07,00,6.70
2009,06,27,07,01,6.80
2009,06,27,07,02,6.80
2009,06,27,07,03,6.90
2009,06,27,07,04,7.00
2009,06,27,07,05,7.00
2009,06,27,07,06,7.10
2009,06,27,07,07,7.10
2009,06,27,07,08,7.20
2009,06,27,07,09,7.20
2009,06,27,07,10,7.30
2009,06,27,07,11,7.30
2009,06,27,07,12,7.30
2009,06,27,07,13,7.40
2009,06,27,07,14,7.50
2009,06,27,07,15,7.50
2009,06,27,07,16,7.60
2009,06,27,07,17,7.60
2009,06,27,07,18,7.70
2009,06,27,07,19,7.70
2009,06,27,07,20,7.80
2009,06,27,07,21,7.80
2009,06,27,07,22,7.90
2009,06,27,07,23,8.00
2009,06,27,07,24,8.00
2009,06,27,07,25,8.10
2009,06,27,07,26,8.20
2009,06,27,07,27,8.30
2009,06,27,07,28,8.40
2009,06,27,07,29,8.50
2009,06,27,07,30,8.60
2009,06,27,07,31,8.70
2009,06,27,07,32,8.90
2009,06,27,07,33,8.90
2009,06,27,07,34,9.00
2009,06,27,07,35,9.10
2009,06,27,07,36,9.20
2009,06,27,07,37,9.20
2009,06,27,07,38,9.30
2009,06,27,07,39,9.30
2009,06,27,07,40,9.40
2009,06,27,07,41,9.40
2009,06,27,07,42,9.40
2009,06,27,07,43,9.50
2009,06,27,07,44,9.50
2009,06,27,07,45,9.60
2009,06,27,07,46,9.60
2009,06,27,07,47,9.60
2009,06,27,07,48,9.60
2009,06,27,07,49,9.60
2009,06,27,07,50,9.70
2009,06,27,07,51,9.70
2009,06,27,07,52,9.70
2009,06,27,07,53,9.80
2009,06,27,07,54,9.80
2009,06,27,07,55,9.70
2009,06,27,07,56,9.70
2009,06,27,07,57,9.70
2009,06,27,07,58,9.70
2009,06,27,07,59,9.70
2009,06,27,08,00,9.70
2009,06,27,08,01,9.80
2009,06,27,08,02,9.90
2009,06,27,08,03,9.90
2009,06,27,08,04,10.00
2009,06,27,08,05,10.10
2009,06,27,08,06,10.10
2009,06,27,08,07,10.10
2009,06,27,08,08,10.20
2009,06,27,08,09,10.20
2009,06,27,08,10,10.30
2009,06,27,08,11,10.40
2009,06,27,08,12,10.40
2009,06,27,08,13,10.50
2009,06,27,08,14,10.60
2009,06,27,08,15,10.60
2009,06,27,08,16,10.60
2009,06,27,08,17,10.70
2009,06,27,08,18,10.70
2009,06,27,08,19,10.80
2009,06,27,08,20,10.80
2009,06,27,08,21,10.80
2009,06,27,08,22,10.70
2009,06,27,08,23,10.70
2009,06,27,08,24,10.70
2009,06,27,08,25,10.70
2009,06,27,08,26,10.70
2009,06,27,08,27,10.70
2009,06,27,08,28,10.70
2009,06,27,08,29,10.80
2009,06,27,08,30,10.80
2009,06,27,08,31,10.90
2009,06,27,08,32,10.90
2009,06,27,08,33,10.90
2009,06,27,08,34,10.80
2009,06,27,08,35,10.80
2009,06,27,08,36,10.70
2009,06,27,08,37,10.70
2009,06,27,08,38,10.70
2009,06,27,08,39,10.70
2009,06,27,08,40,10.80
2009,06,27,08,41,10.80
2009,06,27,08,42,10.90
2009,06,27,08,43,10.90
2009,06,27,08,44,11.00
2009,06,27,08,45,11.10
2009,06,27,08,46,11.20
2009,06,27,08,47,11.20
2009,06,27,08,48,11.20
2009,06,27,08,49,11.20
2009,06,27,08,50,11.30
2009,06,27,08,51,11.40
2009,06,27,08,52,11.40
2009,06,27,08,53,11.50
2009,06,27,08,54,11.60
2009,06,27,08,55,11.60
2009,06,27,08,56,11.60
2009,06,27,08,57,11.60
2009,06,27,08,58,11.60
2009,06,27,08,59,11.60
2009,06,27,09,00,11.60
2009,06,27,09,01,11.50
2009,06,27,09,02,11.40
2009,06,27,09,03,11.40
2009,06,27,09,04,11.40
2009,06,27,09,05,11.40
2009,06,27,09,06,11.40
2009,06,27,09,07,11.40
2009,06,27,09,08,11.40
2009,06,27,09,09,11.40
2009,06,27,09,10,11.40
2009,06,27,09,11,11.50
2009,06,27,09,12,11.60
2009,06,27,09,13,11.60
2009,06,27,09,14,11.60
2009,06,27,09,15,11.60
2009,06,27,09,16,11.60
2009,06,27,09,17,11.60
2009,06,27,09,18,11.60
2009,06,27,09,19,11.60
2009,06,27,09,20,11.50
2009,06,27,09,21,11.40
2009,06,27,09,22,11.40
2009,06,27,09,23,11.50
2009,06,27,09,24,11.60
2009,06,27,09,25,11.60
2009,06,27,09,26,11.60
2009,06,27,09,27,11.60
2009,06,27,09,28,11.60
2009,06,27,09,29,11.60
2009,06,27,09,30,11.60
2009,06,27,09,31,11.60
2009,06,27,09,32,11.70
2009,06,27,09,33,11.70
2009,06,27,09,34,11.70
2009,06,27,09,35,11.80
2009,06,27,09,36,11.80
2009,06,27,09,37,11.80
2009,06,27,09,38,11.80
2009,06,27,09,39,11.80
2009,06,27,09,40,11.80
2009,06,27,09,41,11.80
2009,06,27,09,42,11.80
2009,06,27,09,43,11.80
2009,06,27,09,44,11.80
2009,06,27,09,45,11.80
2009,06,27,09,46,11.80
2009,06,27,09,47,11.70
2009,06,27,09,48,11.80
2009,06,27,09,49,11.70
2009,06,27,09,50,11.70
2009,06,27,09,51,11.70
2009,06,27,09,52,11.70
2009,06,27,09,53,11.70
2009,06,27,09,54,11.80
2009,06,27,09,55,11.80
2009,06,27,09,56,11.90
2009,06,27,09,57,11.90
2009,06,27,09,58,12.00
2009,06,27,09,59,11.90
2009,06,27,10,00,11.90
2009,06,27,10,01,11.90
2009,06,27,10,02,12.00
2009,06,27,10,03,12.00
2009,06,27,10,04,12.10
2009,06,27,10,05,12.20
2009,06,27,10,06,12.20
2009,06,27,10,07,12.30
2009,06,27,10,08,12.40
2009,06,27,10,09,12.40
2009,06,27,10,10,12.50
2009,06,27,10,11,12.50
2009,06,27,10,12,12.60
2009,06,27,10,13,12.60
2009,06,27,10,14,12.70
2009,06,27,10,15,12.70
2009,06,27,10,16,12.60
2009,06,27,10,17,12.50
2009,06,27,10,18,12.50
2009,06,27,10,19,12.50
2009,06,27,10,20,12.40
2009,06,27,10,21,12.40
2009,06,27,10,22,12.30
2009,06,27,10,23,12.30
2009,06,27,10,24,12.40
2009,06,27,10,25,12.30
2009,06,27,10,26,12.30
2009,06,27,10,27,12.30
2009,06,27,10,28,12.10
2009,06,27,10,29,12.10
2009,06,27,10,30,12.00
2009,06,27,10,31,12.00
2009,06,27,10,32,12.00
2009,06,27,10,33,11.90
2009,06,27,10,34,11.90
2009,06,27,10,35,11.90
2009,06,27,10,36,11.90
2009,06,27,10,37,11.90
2009,06,27,10,38,11.90
2009,06,27,10,39,11.80
2009,06,27,10,40,11.90
2009,06,27,10,41,12.00
2009,06,27,10,42,12.10
2009,06,27,10,43,12.10
2009,06,27,10,44,12.20
2009,06,27,10,45,12.30
2009,06,27,10,46,12.30
2009,06,27,10,47,12.40
2009,06,27,10,48,12.40
2009,06,27,10,49,12.40
2009,06,27,10,50,12.50
2009,06,27,10,51,12.60
2009,06,27,10,52,12.70
2009,06,27,10,53,12.70
2009,06,27,10,54,12.80
2009,06,27,10,55,12.80
2009,06,27,10,56,12.80
2009,06,27,10,57,12.80
2009,06,27,10,58,12.80
2009,06,27,10,59,12.80
2009,06,27,11,00,12.80
2009,06,27,11,01,12.80
2009,06,27,11,02,12.70
2009,06,27,11,03,12.80
2009,06,27,11,04,12.80
2009,06,27,11,05,12.80
2009,06,27,11,06,12.80
2009,06,27,11,07,12.90
2009,06,27,11,08,12.90
2009,06,27,11,09,12.90
2009,06,27,11,10,12.90
2009,06,27,11,11,12.90
2009,06,27,11,12,12.90
2009,06,27,11,13,12.90
2009,06,27,11,14,12.90
2009,06,27,11,15,12.80
2009,06,27,11,16,12.70
2009,06,27,11,17,12.70
2009,06,27,11,18,12.70
2009,06,27,11,19,12.80
2009,06,27,11,20,12.80
2009,06,27,11,21,12.80
2009,06,27,11,22,12.80
2009,06,27,11,23,12.80
2009,06,27,11,24,12.80
2009,06,27,11,25,12.80
2009,06,27,11,26,12.80
2009,06,27,11,27,12.90
2009,06,27,11,28,13.00
2009,06,27,11,29,13.00
2009,06,27,11,30,12.90
2009,06,27,11,31,12.90
2009,06,27,11,32,12.80
2009,06,27,11,33,12.80
2009,06,27,11,34,12.80
2009,06,27,11,35,12.80
2009,06,27,11,36,12.90
2009,06,27,11,37,13.00
2009,06,27,11,38,13.00
2009,06,27,11,39,13.10
2009,06,27,11,40,13.10
2009,06,27,11,41,13.10
2009,06,27,11,42,13.20
2009,06,27,11,43,13.20
2009,06,27,11,44,13.30
2009,06,27,11,45,13.50
2009,06,27,11,46,13.60
2009,06,27,11,47,13.70
2009,06,27,11,48,13.70
2009,06,27,11,49,13.60
2009,06,27,11,50,13.50
2009,06,27,11,51,13.50
2009,06,27,11,52,13.50
2009,06,27,11,53,13.50
2009,06,27,11,54,13.50
2009,06,27,11,55,13.50
2009,06,27,11,56,13.40
2009,06,27,11,57,13.50
2009,06,27,11,58,13.50
2009,06,27,11,59,13.60
2009,06,27,12,00,13.70
2009,06,27,12,01,13.70
2009,06,27,12,02,13.70
2009,06,27,12,03,13.70
2009,06,27,12,04,13.80
2009,06,27,12,05,13.90
2009,06,27,12,06,14.00
2009,06,27,12,07,14.00
2009,06,27,12,08,14.10
2009,06,27,12,09,14.20
2009,06,27,12,10,14.20
2009,06,27,12,11,14.20
2009,06,27,12,12,14.20
2009,06,27,12,13,14.20
2009,06,27,12,14,14.10
2009,06,27,12,15,14.10
2009,06,27,12,16,14.10
2009,06,27,12,17,14.10
2009,06,27,12,18,14.20
2009,06,27,12,19,14.30
2009,06,27,12,20,14.30
2009,06,27,12,21,14.30
2009,06,27,12,22,14.30
2009,06,27,12,23,14.20
2009,06,27,12,24,14.20
2009,06,27,12,25,14.20
2009,06,27,12,26,14.10
2009,06,27,12,27,14.10
2009,06,27,12,28,14.10
2009,06,27,12,29,14.20
2009,06,27,12,30,14.20
2009,06,27,12,31,14.30
2009,06,27,12,32,14.30
2009,06,27,12,33,14.40
2009,06,27,12,34,14.50
2009,06,27,12,35,14.50
2009,06,27,12,36,14.70
2009,06,27,12,37,14.70
2009,06,27,12,38,14.70
2009,06,27,12,39,14.60
2009,06,27,12,40,14.60
2009,06,27,12,41,14.60
2009,06,27,12,42,14.70
2009,06,27,12,43,14.60
2009,06,27,12,44,14.50
2009,06,27,12,45,14.40
2009,06,27,12,46,14.30
2009,06,27,12,47,14.30
2009,06,27,12,48,14.40
2009,06,27,12,49,14.50
2009,06,27,12,50,14.50
2009,06,27,12,51,14.60
2009,06,27,12,52,14.70
2009,06,27,12,53,14.80
2009,06,27,12,54,14.80
2009,06,27,12,55,14.80
2009,06,27,12,56,14.80
2009,06,27,12,57,14.90
2009,06,27,12,58,14.90
2009,06,27,12,59,14.80
2009,06,27,13,00,14.70
2009,06,27,13,01,14.70
2009,06,27,13,02,14.60
2009,06,27,13,03,14.50
2009,06,27,13,04,14.30
2009,06,27,13,05,14.10
2009,06,27,13,06,14.00
2009,06,27,13,07,13.90
2009,06,27,13,08,13.80
2009,06,27,13,09,13.70
2009,06,27,13,10,13.70
2009,06,27,13,11,13.60
2009,06,27,13,12,13.50
2009,06,27,13,13,13.60
2009,06,27,13,14,13.60
2009,06,27,13,15,13.60
2009,06,27,13,16,13.70
2009,06,27,13,17,13.70
2009,06,27,13,18,13.70
2009,06,27,13,19,13.50
2009,06,27,13,20,13.30
2009,06,27,13,21,13.20
2009,06,27,13,22,13.20
2009,06,27,13,23,13.10
2009,06,27,13,24,13.10
2009,06,27,13,25,13.00
2009,06,27,13,26,13.10
2009,06,27,13,27,13.10
2009,06,27,13,28,13.10
2009,06,27,13,29,13.10
2009,06,27,13,30,13.00
2009,06,27,13,31,13.10
2009,06,27,13,32,13.20
2009,06,27,13,33,13.20
2009,06,27,13,34,13.10
2009,06,27,13,35,13.10
2009,06,27,13,36,13.00
2009,06,27,13,37,13.00
2009,06,27,13,38,13.00
2009,06,27,13,39,13.10
2009,06,27,13,40,13.20
2009,06,27,13,41,13.20
2009,06,27,13,42,13.40
2009,06,27,13,43,13.60
2009,06,27,13,44,13.60
2009,06,27,13,45,13.60
2009,06,27,13,46,13.70
2009,06,27,13,47,13.70
2009,06,27,13,48,13.80
2009,06,27,13,49,13.90
2009,06,27,13,50,13.90
2009,06,27,13,51,14.00
2009,06,27,13,52,14.10
2009,06,27,13,53,14.20
2009,06,27,13,54,14.30
2009,06,27,13,55,14.30
2009,06,27,13,56,14.30
2009,06,27,13,57,14.30
2009,06,27,13,58,14.30
2009,06,27,13,59,14.20
2009,06,27,14,00,14.10
2009,06,27,14,01,13.90
2009,06,27,14,02,13.80
2009,06,27,14,03,13.70
2009,06,27,14,04,13.60
2009,06,27,14,05,13.70
2009,06,27,14,06,13.70
2009,06,27,14,07,13.80
2009,06,27,14,08,13.90
2009,06,27,14,09,13.90
2009,06,27,14,10,14.00
2009,06,27,14,11,14.00
2009,06,27,14,12,14.00
2009,06,27,14,13,14.00
2009,06,27,14,14,14.00
2009,06,27,14,15,14.10
2009,06,27,14,16,14.20
2009,06,27,14,17,14.20
2009,06,27,14,18,14.20
2009,06,27,14,19,14.20
2009,06,27,14,20,14.20
2009,06,27,14,21,14.10
2009,06,27,14,22,14.00
2009,06,27,14,23,13.90
2009,06,27,14,24,13.80
2009,06,27,14,25,13.80
2009,06,27,14,26,13.80
2009,06,27,14,27,13.80
2009,06,27,14,28,13.90
2009,06,27,14,29,13.90
2009,06,27,14,30,14.00
2009,06,27,14,31,14.10
2009,06,27,14,32,14.20
2009,06,27,14,33,14.20
2009,06,27,14,34,14.20
2009,06,27,14,35,14.30
2009,06,27,14,36,14.30
2009,06,27,14,37,14.30
2009,06,27,14,38,14.30
2009,06,27,14,39,14.30
2009,06,27,14,40,14.50
2009,06,27,14,41,14.60
2009,06,27,14,42,14.80
2009,06,27,14,43,14.90
2009,06,27,14,44,15.10
2009,06,27,14,45,15.10
2009,06,27,14,46,15.10
2009,06,27,14,47,15.10
2009,06,27,14,48,15.10
2009,06,27,14,49,15.20
2009,06,27,14,50,15.30
2009,06,27,14,51,15.40
2009,06,27,14,52,15.50
2009,06,27,14,53,15.60
2009,06,27,14,54,15.60
2009,06,27,14,55,15.50
2009,06,27,14,56,15.50
2009,06,27,14,57,15.40
2009,06,27,14,58,15.30
2009,06,27,14,59,15.40
2009,06,27,15,00,15.50
2009,06,27,15,01,15.50
2009,06,27,15,02,15.60
2009,06,27,15,03,15.70
2009,06,27,15,04,15.90
2009,06,27,15,05,16.00
2009,06,27,15,06,16.10
2009,06,27,15,07,16.10
2009,06,27,15,08,16.20
2009,06,27,15,09,16.30
2009,06,27,15,10,16.40
2009,06,27,15,11,16.50
2009,06,27,15,12,16.60
2009,06,27,15,13,16.70
2009,06,27,15,14,16.80
2009,06,27,15,15,16.90
2009,06,27,15,16,17.00
2009,06,27,15,17,17.20
2009,06,27,15,18,17.30
2009,06,27,15,19,17.30
2009,06,27,15,20,17.30
2009,06,27,15,21,17.30
2009,06,27,15,22,17.30
2009,06,27,15,23,17.30
2009,06,27,15,24,17.40
2009,06,27,15,25,17.50
2009,06,27,15,26,17.60
2009,06,27,15,27,17.50
2009,06,27,15,28,17.40
2009,06,27,15,29,17.50
2009,06,27,15,30,17.50
2009,06,27,15,31,17.60
2009,06,27,15,32,17.60
2009,06,27,15,33,17.60
2009,06,27,15,34,17.70
2009,06,27,15,35,17.70
2009,06,27,15,36,17.80
2009,06,27,15,37,17.80
2009,06,27,15,38,17.90
2009,06,27,15,39,17.90
2009,06,27,15,40,17.90
2009,06,27,15,41,18.00
2009,06,27,15,42,18.10
2009,06,27,15,43,18.20
2009,06,27,15,44,18.30
2009,06,27,15,45,18.40
2009,06,27,15,46,18.50
2009,06,27,15,47,18.60
2009,06,27,15,48,18.70
2009,06,27,15,49,18.80
2009,06,27,15,50,18.90
2009,06,27,15,51,18.90
2009,06,27,15,52,18.90
2009,06,27,15,53,18.90
2009,06,27,15,54,18.90
2009,06,27,15,55,19.00
2009,06,27,15,56,19.10
2009,06,27,15,57,19.10
2009,06,27,15,58,19.20
2009,06,27,15,59,19.20
2009,06,27,16,00,19.30
2009,06,27,16,01,19.40
2009,06,27,16,02,19.50
2009,06,27,16,03,19.70
2009,06,27,16,04,19.90
2009,06,27,16,05,20.00
2009,06,27,16,06,20.10
2009,06,27,16,07,20.20
2009,06,27,16,08,20.40
2009,06,27,16,09,20.50
2009,06,27,16,10,20.70
2009,06,27,16,11,20.80
2009,06,27,16,12,20.70
2009,06,27,16,13,20.70
2009,06,27,16,14,20.60
2009,06,27,16,15,20.50
2009,06,27,16,16,20.40
2009,06,27,16,17,20.40
2009,06,27,16,18,20.50
2009,06,27,16,19,20.60
2009,06,27,16,20,20.70
2009,06,27,16,21,20.80
2009,06,27,16,22,20.90
2009,06,27,16,23,20.90
2009,06,27,16,24,20.90
2009,06,27,16,25,20.80
2009,06,27,16,26,20.70
2009,06,27,16,27,20.60
2009,06,27,16,28,20.70
2009,06,27,16,29,20.70
2009,06,27,16,30,20.70
2009,06,27,16,31,20.70
2009,06,27,16,32,20.60
2009,06,27,16,33,20.60
2009,06,27,16,34,20.70
2009,06,27,16,35,20.70
2009,06,27,16,36,20.80
2009,06,27,16,37,20.90
2009,06,27,16,38,20.90
2009,06,27,16,39,20.90
2009,06,27,16,40,20.90
2009,06,27,16,41,20.90
2009,06,27,16,42,20.80
2009,06,27,16,43,20.80
2009,06,27,16,44,20.70
2009,06,27,16,45,20.70
2009,06,27,16,46,20.80
2009,06,27,16,47,20.80
2009,06,27,16,48,20.80
2009,06,27,16,49,20.80
2009,06,27,16,50,20.70
2009,06,27,16,51,20.70
2009,06,27,16,52,20.60
2009,06,27,16,53,20.60
2009,06,27,16,54,20.50
2009,06,27,16,55,20.50
2009,06,27,16,56,20.30
2009,06,27,16,57,20.30
2009,06,27,16,58,20.20
2009,06,27,16,59,20.10
2009,06,27,17,00,19.90
2009,06,27,17,01,19.90
2009,06,27,17,02,19.80
2009,06,27,17,03,19.70
2009,06,27,17,04,19.60
2009,06,27,17,05,19.60
2009,06,27,17,06,19.60
2009,06,27,17,07,19.60
2009,06,27,17,08,19.60
2009,06,27,17,09,19.60
2009,06,27,17,10,19.60
2009,06,27,17,11,19.60
2009,06,27,17,12,19.50
2009,06,27,17,13,19.40
2009,06,27,17,14,19.30
2009,06,27,17,15,19.30
2009,06,27,17,16,19.20
2009,06,27,17,17,19.10
2009,06,27,17,18,19.10
2009,06,27,17,19,19.10
2009,06,27,17,20,19.10
2009,06,27,17,21,19.10
2009,06,27,17,22,19.10
2009,06,27,17,23,19.00
2009,06,27,17,24,18.90
2009,06,27,17,25,18.90
2009,06,27,17,26,18.90
2009,06,27,17,27,18.90
2009,06,27,17,28,18.90
2009,06,27,17,29,18.90
2009,06,27,17,30,18.90
2009,06,27,17,31,18.90
2009,06,27,17,32,18.90
2009,06,27,17,33,18.90
2009,06,27,17,34,19.00
2009,06,27,17,35,19.10
2009,06,27,17,36,19.10
2009,06,27,17,37,19.10
2009,06,27,17,38,19.10
2009,06,27,17,39,19.10
2009,06,27,17,40,19.10